[[{"header":{"parameterUnit":"m.s-1","parameterCategory":1,"la1":30.2991,"la2":30.254,"lo1":-89.0895,"lo2":-89.0444,"dy":0.0017,"dx":0.0017,"nx":28,"ny":28,"refTime":"2025-09-02T21:00:00:Z","depth":0,"parameterNumber":2,"parameterNumberName":"U-component_of_WINDS"},"data":[0,0,0,0,0,0,0,0,0,0,0,0,0,0,0,0,0,0,0,0,0,0,0,0,0,0,0,0,0,0,0,0,0,0,0,0,0,0,0,0,0,0,0,0,0,0,0,0,0,0,0,0,0,0,0,0,0,0,-0.7981,-0.7981,0,-0.7958,-0.7958,-0.7957,-0.7909,-0.7908,-0.7908,-0.7907,-0.7883,-0.7884,-0.7884,0,0,0,0,0,0,0,0,0,0,0,0,0,-0.7986,-0.7986,-0.7981,-0.7981,-0.7981,-0.7958,-0.7958,-0.7957,-0.791,-0.7908,-0.7907,-0.7906,-0.7883,-0.7884,-0.7884,0,0,0,0,0,0,0,0,0,0,0,0,0,-0.7976,-0.7986,-0.7981,-0.7954,-0.7951,-0.7958,-0.7958,-0.7957,-0.791,-0.7908,-0.7907,-0.7906,-0.7883,-0.7884,-0.7884,-0.7915,0,0,-0.7885,-0.7885,0,0,0,0,0,0,0,0,-0.7976,-0.7975,-0.7958,-0.7956,-0.7953,-0.7935,-0.7951,-0.7943,-0.791,-0.7926,-0.7907,-0.7905,-0.7902,-0.7901,-0.7899,-0.7914,-0.7913,-0.7885,-0.7886,-0.7886,-0.7886,0,0,0,0,0,0,0,-0.7977,-0.7976,-0.7972,-0.7958,-0.7955,-0.7944,-0.794,-0.7949,-0.7922,-0.7924,-0.7921,-0.7919,-0.79,-0.7899,-0.7899,-0.7913,-0.7885,-0.7886,-0.7886,-0.7886,-0.7953,-0.7955,0,0,0,0,0,0,-0.7982,-0.7977,-0.7973,-0.7971,-0.7961,-0.7945,-0.7941,-0.7942,-0.7922,-0.7917,-0.792,-0.7916,-0.7899,-0.7898,-0.7898,-0.7933,-0.7886,-0.7886,-0.7886,-0.7952,-0.7953,-0.7955,0,0,0,0,0,0,-0.7982,-0.7982,-0.7974,-0.7973,-0.7971,-0.7946,-0.7948,-0.7943,-0.7942,-0.7919,-0.7914,-0.7924,-0.7898,-0.7897,-0.7911,-0.7932,-0.7886,-0.7887,-0.795,-0.7952,-0.7954,-0.8005,0,0,0,0,0,0,-0.7982,-0.7982,-0.7993,-0.7974,-0.7972,-0.7988,-0.7949,-0.7943,-0.7942,-0.7938,-0.7921,-0.7917,-0.7897,-0.7911,-0.7912,-0.7931,-0.7887,-0.7948,-0.7951,-0.7954,-0.8001,-0.8009,-0.8015,0,0,0,0,0,-0.7982,-0.8008,-0.7994,-0.7994,-0.7985,-0.7989,-0.7988,-0.7964,-0.7944,-0.7956,-0.7941,-0.7917,-0.793,-0.7913,-0.7913,-0.7934,-0.7946,-0.795,-0.7953,-0.7998,-0.8007,-0.8015,0,0,0,0,0,0,-0.8031,-0.8005,-0.7989,-0.8009,-0.8002,-0.7981,-0.7994,-0.7974,-0.7972,-0.7968,-0.7939,-0.7935,-0.7954,-0.7945,-0.7927,-0.7963,-0.7934,-0.7938,-0.7968,-0.7976,-0.7983,-0.7985,-0.7887,0,0,0,0,0,-0.8044,-0.8049,-0.8026,-0.8047,-0.8043,-0.802,-0.8021,-0.8003,-0.7994,-0.7991,-0.7977,-0.7969,-0.7971,-0.7973,-0.7974,-0.8,-0.7996,-0.8014,-0.8021,-0.8027,-0.803,-0.8044,-0.8052,-0.7966,-0.7966,-0.7966,0,0,-0.8071,-0.8057,-0.8062,-0.8056,-0.8048,-0.8054,-0.8017,-0.8025,-0.803,-0.7992,-0.8005,-0.7995,-0.7984,-0.8005,-0.8013,-0.7998,-0.8053,-0.8031,-0.8036,-0.8036,-0.8048,-0.8056,-0.8063,-0.7969,-0.7968,-0.7968,0,0,-0.8123,-0.8113,-0.8129,-0.8122,-0.8111,-0.8095,-0.8099,-0.8081,-0.8073,-0.8085,-0.8057,-0.8062,-0.8067,-0.8061,-0.8058,-0.8109,-0.8088,-0.811,-0.8146,-0.816,-0.8166,-0.8172,-0.8191,-0.8198,-0.8114,-0.8114,-0.8114,0,-0.8158,-0.8166,-0.814,-0.815,-0.8148,-0.8114,-0.8131,-0.8125,-0.8115,-0.8114,-0.8098,-0.8103,-0.8093,-0.8112,-0.8125,-0.8124,-0.8128,-0.8112,-0.8167,-0.8173,-0.8178,-0.8196,-0.8203,-0.8117,-0.8117,-0.8116,-0.8116,0,-0.821,-0.8216,-0.823,-0.8221,-0.8221,-0.8234,-0.8211,-0.8214,-0.8197,-0.8183,-0.8197,-0.8184,-0.8182,-0.8185,-0.8169,-0.8202,-0.8193,-0.8173,-0.8143,-0.819,-0.8206,-0.8212,-0.8121,-0.812,-0.8119,-0.8119,0,0,-0.8291,-0.8268,-0.8274,-0.8269,-0.8254,-0.8259,-0.8271,-0.8269,-0.8272,-0.8267,-0.8276,-0.8281,-0.8262,-0.8259,-0.8242,-0.8254,-0.8296,-0.8231,-0.8231,-0.8244,-0.8333,-0.8349,-0.8357,-0.8282,-0.8283,-0.8284,-0.8334,0,-0.834,-0.8359,-0.8337,-0.836,-0.8366,-0.8334,-0.8345,-0.8337,-0.8325,-0.8329,-0.8315,-0.8319,-0.8293,-0.8292,-0.8302,-0.8288,-0.8313,-0.8285,-0.8291,-0.8291,-0.8294,-0.8365,-0.8382,-0.843,-0.834,-0.8341,-0.8342,0,-0.84,-0.8397,-0.8421,-0.8406,-0.8407,-0.8417,-0.8414,-0.8417,-0.8408,-0.8399,-0.8396,-0.8375,-0.8387,-0.8358,-0.8374,-0.8355,-0.8356,-0.835,-0.8351,-0.8351,-0.8319,-0.8367,-0.8444,-0.8452,-0.8351,-0.835,-0.835,0,-0.8457,-0.8459,-0.8474,-0.8472,-0.8454,-0.8461,-0.8454,-0.8444,-0.8444,-0.8442,-0.8442,-0.8441,-0.844,-0.844,-0.842,-0.8401,-0.8438,-0.8408,-0.8431,-0.8432,-0.844,-0.844,-0.8519,-0.8441,-0.8441,-0.8441,-0.8441,0,-0.8514,-0.8531,-0.85,-0.8509,-0.8527,-0.8501,-0.852,-0.8509,-0.8501,-0.8508,-0.8481,-0.8488,-0.8461,-0.8465,-0.845,-0.8465,-0.8465,-0.8458,-0.8454,-0.8461,-0.8462,-0.8461,-0.8457,-0.8443,-0.8442,-0.8442,-0.8442,0,-0.8581,-0.8561,-0.8576,-0.8558,-0.8554,-0.8568,-0.8552,-0.8561,-0.8547,-0.8556,-0.8557,-0.8536,-0.854,-0.852,-0.852,-0.851,-0.8534,-0.8524,-0.8537,-0.8534,-0.8558,-0.8556,-0.864,-0.865,-0.8566,-0.8566,-0.8567,0,-0.8619,-0.8631,-0.8614,-0.8617,-0.8611,-0.8616,-0.8617,-0.8592,-0.8594,-0.8585,-0.8595,-0.8597,-0.8597,-0.8606,-0.859,-0.8591,-0.8581,-0.861,-0.8581,-0.8588,-0.8582,-0.8582,-0.8583,-0.8616,-0.8617,-0.8618,-0.8619,0,-0.8688,-0.8678,-0.868,-0.8678,-0.8679,-0.8677,-0.8673,-0.8677,-0.865,-0.8654,-0.8658,-0.8658,-0.8659,-0.8662,-0.866,-0.8653,-0.8632,-0.8628,-0.8634,-0.8641,-0.8648,-0.8645,-0.8554,-0.8627,-0.8626,-0.8625,-0.8625,-0.8625,-0.8742,-0.8751,-0.8741,-0.8744,-0.8738,-0.8735,-0.8742,-0.873,-0.8732,-0.8731,-0.8717,-0.8724,-0.8716,-0.871,-0.8706,-0.8711,-0.8698,-0.8705,-0.8707,-0.871,-0.8714,-0.8648,-0.8711,-0.8711,-0.871,-0.871,-0.871,0,-0.881,-0.8802,-0.8805,-0.88,-0.8803,-0.8783,-0.8777,-0.8781,-0.8787,-0.8781,-0.8782,-0.8787,-0.879,-0.8775,-0.8776,-0.8784,-0.8774,-0.8785,-0.8784,-0.8783,-0.8726,-0.8722,-0.8792,-0.8792,-0.8792,-0.8792,-0.8792,-0.8792,-0.8846,-0.8861,-0.885,-0.8862,-0.8854,-0.886,-0.8859,-0.8856,-0.8851,-0.8858,-0.886,-0.8851,-0.8841,-0.8842,-0.8844,-0.8839,-0.8841,-0.8855,-0.8848,-0.8795,-0.8787,-0.8779,-0.8775,-0.8855,-0.8856,-0.8904,-0.8904,-0.8904]},{"header":{"parameterUnit":"m.s-1","parameterCategory":1,"la1":30.2991,"la2":30.254,"lo1":-89.0895,"lo2":-89.0444,"dy":0.0017,"dx":0.0017,"nx":28,"ny":28,"refTime":"2025-09-02T21:00:00:Z","depth":0,"parameterNumber":3,"parameterNumberName":"V-component_of_WINDS"},"data":[0,0,0,0,0,0,0,0,0,0,0,0,0,0,0,0,0,0,0,0,0,0,0,0,0,0,0,0,0,0,0,0,0,0,0,0,0,0,0,0,0,0,0,0,0,0,0,0,0,0,0,0,0,0,0,0,0,0,1.1217,1.1217,0,1.1226,1.1227,1.1227,1.1261,1.1262,1.1262,1.1263,1.1272,1.1271,1.1271,0,0,0,0,0,0,0,0,0,0,0,0,0,1.1227,1.1227,1.1217,1.1217,1.1217,1.1226,1.1227,1.1227,1.1261,1.1262,1.1263,1.1263,1.1272,1.1271,1.1271,0,0,0,0,0,0,0,0,0,0,0,0,0,1.1228,1.1226,1.1217,1.1235,1.1237,1.1226,1.1227,1.1227,1.126,1.1262,1.1263,1.1264,1.1272,1.1271,1.1271,1.1243,0,0,1.1268,1.1268,0,0,0,0,0,0,0,0,1.1228,1.1228,1.1233,1.1234,1.1236,1.1244,1.1233,1.1232,1.126,1.1252,1.1263,1.1264,1.1261,1.1262,1.1261,1.1243,1.1244,1.1268,1.1268,1.1268,1.1267,0,0,0,0,0,0,0,1.1228,1.1227,1.1221,1.1233,1.1235,1.1243,1.1244,1.1233,1.125,1.1252,1.1255,1.1256,1.1263,1.1261,1.1261,1.1244,1.1268,1.1268,1.1267,1.1267,1.1202,1.1201,0,0,0,0,0,0,1.1225,1.1227,1.122,1.1221,1.1235,1.1241,1.1243,1.124,1.125,1.1253,1.1255,1.1257,1.1262,1.1262,1.1262,1.1228,1.1268,1.1267,1.1267,1.1203,1.1202,1.12,0,0,0,0,0,0,1.1225,1.1224,1.122,1.1225,1.1225,1.124,1.1236,1.124,1.1238,1.1252,1.1255,1.125,1.1263,1.1263,1.1247,1.1229,1.1267,1.1266,1.1205,1.1203,1.1201,1.1161,0,0,0,0,0,0,1.1226,1.1224,1.1214,1.1224,1.1224,1.1205,1.1235,1.1239,1.1237,1.1241,1.1249,1.1251,1.1264,1.1248,1.1246,1.1228,1.1265,1.1206,1.1204,1.1201,1.1164,1.1158,1.1153,0,0,0,0,0,1.1226,1.1203,1.1213,1.1212,1.1212,1.1204,1.1204,1.122,1.1236,1.1225,1.1234,1.1251,1.1232,1.1246,1.1244,1.1226,1.1207,1.1204,1.1202,1.1167,1.1159,1.1153,0,0,0,0,0,0,1.119,1.1205,1.1216,1.1196,1.1199,1.121,1.1197,1.1212,1.121,1.1213,1.1232,1.1234,1.1215,1.1219,1.1235,1.1199,1.1222,1.1219,1.1196,1.1189,1.1184,1.1182,1.1265,0,0,0,0,0,1.118,1.1173,1.1186,1.1167,1.1167,1.1182,1.1179,1.1191,1.1194,1.1195,1.1203,1.1205,1.1199,1.1195,1.1191,1.1166,1.1167,1.1152,1.1147,1.1142,1.1138,1.1123,1.1116,1.1191,1.1191,1.1191,0,0,1.1159,1.1166,1.116,1.116,1.1163,1.1154,1.1183,1.1173,1.1166,1.1194,1.1179,1.1184,1.1188,1.1167,1.1158,1.117,1.1118,1.1138,1.1135,1.1133,1.112,1.1113,1.1106,1.1189,1.1189,1.1189,0,0,1.1116,1.1121,1.1105,1.1107,1.1112,1.1122,1.1118,1.1127,1.1131,1.1116,1.1136,1.1129,1.1119,1.112,1.1119,1.1075,1.109,1.1074,1.1044,1.1029,1.1023,1.1018,1.1,1.0994,1.107,1.107,1.107,0,1.1088,1.1076,1.1094,1.1082,1.1081,1.1106,1.1089,1.109,1.1093,1.1091,1.1105,1.1092,1.1096,1.1075,1.1064,1.1063,1.1058,1.1072,1.1023,1.1018,1.1013,1.0996,1.0989,1.1068,1.1068,1.1068,1.1069,0,1.1042,1.1033,1.1019,1.1021,1.1018,1.1003,1.1018,1.1013,1.1025,1.1033,1.1017,1.1023,1.102,1.1016,1.1028,1.0996,1.1003,1.1019,1.1043,1.1003,1.0988,1.0981,1.1065,1.1065,1.1066,1.1067,0,0,1.0975,1.0987,1.0981,1.0981,1.0988,1.0981,1.0967,1.0964,1.0958,1.0959,1.0947,1.0938,1.0953,1.0952,1.0964,1.0951,1.0913,1.0969,1.097,1.0957,1.0876,1.0861,1.0853,1.0924,1.0923,1.0922,1.0874,0,1.0932,1.0909,1.0924,1.0898,1.0889,1.0913,1.0901,1.0903,1.091,1.0903,1.0911,1.0903,1.0925,1.0924,1.0913,1.092,1.0897,1.0924,1.0911,1.091,1.0907,1.0846,1.0831,1.0785,1.0869,1.0868,1.0867,0,1.0878,1.0876,1.0849,1.0856,1.0853,1.0841,1.0839,1.0832,1.0835,1.0841,1.0839,1.0854,1.084,1.0865,1.0845,1.0863,1.0859,1.0862,1.086,1.0858,1.0885,1.0839,1.0772,1.0764,1.0858,1.0859,1.0859,0,1.0829,1.082,1.0802,1.0802,1.081,1.0801,1.0804,1.0808,1.0805,1.0802,1.08,1.0796,1.0793,1.079,1.0803,1.082,1.078,1.0807,1.0783,1.0783,1.0772,1.0772,1.07,1.0773,1.0773,1.0773,1.0774,0,1.0778,1.076,1.078,1.0769,1.0749,1.0767,1.0747,1.0752,1.0755,1.0745,1.0766,1.0755,1.0774,1.0766,1.0776,1.0757,1.0756,1.0759,1.0762,1.0756,1.0755,1.0752,1.0754,1.0772,1.0772,1.0772,1.0773,0,1.0719,1.0733,1.0714,1.0723,1.0725,1.071,1.0717,1.0707,1.0715,1.0702,1.0699,1.0713,1.0703,1.0717,1.0709,1.0716,1.0689,1.0697,1.0687,1.0689,1.0664,1.0665,1.0586,1.0575,1.0657,1.0656,1.0655,0,1.0685,1.0671,1.0678,1.0673,1.0674,1.0666,1.0662,1.0679,1.0674,1.0675,1.0664,1.0657,1.0651,1.0635,1.0644,1.0637,1.0645,1.0617,1.0644,1.0638,1.0641,1.0641,1.0638,1.0611,1.061,1.0609,1.0608,0,1.0621,1.0628,1.0621,1.0617,1.0611,1.0609,1.0608,1.0602,1.062,1.0613,1.0604,1.06,1.0591,1.0583,1.0579,1.0581,1.0597,1.06,1.0594,1.0587,1.0581,1.0581,1.067,1.0602,1.0602,1.0603,1.0603,1.0603,1.0571,1.0559,1.0562,1.0554,1.0555,1.0553,1.0543,1.055,1.0543,1.0537,1.0548,1.0535,1.0537,1.0534,1.0534,1.0524,1.0536,1.0527,1.0525,1.0522,1.0517,1.0584,1.0524,1.0524,1.0524,1.0524,1.0524,0,1.0506,1.0509,1.0502,1.0499,1.0492,1.0509,1.0508,1.0501,1.0489,1.049,1.0484,1.0472,1.0464,1.0472,1.0465,1.0455,1.0462,1.0452,1.0452,1.0452,1.0508,1.0513,1.0447,1.0447,1.0447,1.0447,1.0447,1.0447,1.0471,1.0452,1.0459,1.0439,1.0442,1.043,1.0428,1.0426,1.0426,1.0412,1.0405,1.041,1.0413,1.0407,1.0399,1.0402,1.0397,1.0384,1.0389,1.0441,1.0448,1.0455,1.046,1.0384,1.0384,1.0334,1.0333,1.0333]}]]